Location: Brachbach
(49.1847°N, 9.7240°E)
Time: 09:40:27
(UTC+00:00)

FENGYUN 3A - Pass Details

Date: 14 August 2024
Orbit: 821 x 834 km, 98.6° (Epoch: 16 September)

Event Time Altitude Azimuth Distance (km) Brightness Sun altitude
Rises 01:54:04 0° 14° (NNE) 3,396 8.0 -18.6°
Reaches altitude 10° 01:56:26 10° 14° (NNE) 2,456 7.1 -18.4°
Maximum altitude 02:01:54 87° 286° (WNW) 841 3.6 -17.8°
Enters shadow 02:04:57 27° 199° (SSW) 1,541 4.5 -17.5°
